Skip Page Navigation
NASA JPL Caltech
NASA Logo - Jet Propulsion Laboratory + View the NASA Portal
+ Center for Near-Earth Object Studies
JPL Home Earth Solar System Stars & Galaxies Technology
JPL Solar System Dynamics
BODIES ORBITS EPHEMERIDES TOOLS PHYSICAL DATA DISCOVERY FAQ SITE MAP
JPL Small-Body Database Browser
Search: [ help ]  
136528 (2006 GM22)
Classification: Main-belt Asteroid          SPK-ID: 2136528
Ephemeris | Orbit Diagram | Orbital Elements | Mission Design | Physical Parameters | Discovery Circumstances | Close-Approach Data ]

[ hide orbit diagram ]

For accurate long-term ephemerides, please instead use our Horizons system.This orbit viewer was implemented using two-body methods, and hence should not be used for determining accurate long-term trajectories (over several years or decades) or planetary encounter circumstances.


[ revert to old Java-based viewer ]

Orbital Elements at Epoch 2459000.5 (2020-May-31.0) TDB
Reference: JPL 16 (heliocentric ecliptic J2000)
 Element Value Uncertainty (1-sigma)   Units 
e .09218297302596554 3.7884e-08  
a 2.798519835139718 1.9315e-08 au
q 2.540543956664404 1.08e-07 au
i 5.09543197425326 4.7951e-06 deg
node 76.71029657951924 5.6858e-05 deg
peri 235.417521576364 6.674e-05 deg
M 273.2857240126818 3.8116e-05 deg
tp 2459412.387974602429
(2021-Jul-16.88797460)
0.00018248 TDB
period 1709.979921628592
4.68
1.7703e-05
4.847e-08
d
yr
n .2105287877632706 2.1795e-09 deg/d
Q 3.056495713615032 2.1095e-08 au
  Orbit Determination Parameters
   # obs. used (total)      452  
   data-arc span      6969 days (19.08 yr)  
   first obs. used      2001-03-29  
   last obs. used      2020-04-27  
   planetary ephem.      DE431  
   SB-pert. ephem.      SB431-N16  
   condition code      0  
   norm. resid. RMS      .59361  
   source      ORB  
   producer      Otto Matic  
   solution date      2020-May-20 22:39:19  

Additional Information
 Earth MOID = 1.53047 au 
 Jupiter MOID = 2.15586 au 
 T_jup = 3.314 
[ show covariance matrix ]

Ephemeris | Orbit Diagram | Orbital Elements | Mission Design | Physical Parameters | Discovery Circumstances | Close-Approach Data ]

Physical Parameter Table
Parameter Symbol Value Units Sigma Reference Notes
absolute magnitude H 15.5   n/a MPO436672  

136528 (2006 GM22)          Discovered 2006-Apr-02 by Spacewatch at Kitt Peak
Reference: 20060907/Numbers.arcLast Updated: 2006-09-10

[ show close-approach data ]
Alternate Designations
 2006 GM22 = 2001 FZ195 
Ephemeris | Orbit Diagram | Orbital Elements | Mission Design | Physical Parameters | Discovery Circumstances | Close-Approach Data ]
ABOUT SSD CREDITS/AWARDS PRIVACY/COPYRIGHT GLOSSARY LINKS
FirstGov 2020-Oct-23 06:33 UT
(server date/time)  
NASA Home Page
Site Manager:   Ryan S. Park
Webmaster  Alan B. Chamberlin